Location: Aztalan State Park
(43.0642°N, 88.8607°W)
Time: 03:08:33
(UTC-06:00)

Tiangong 1 - Visible Passes

Search period start: 21 January 2018 00:00
Search period end: 31 January 2018 00:00
Orbit: 262 x 287 km, 42.8° (Epoch: 21 January)

Date Brightness Start Highest point End Pass type
(mag) Time Alt. Az. Time Alt. Az. Time Alt. Az.
21 Jan 1.7 18:29:16 10° W 18:31:34 34° SSW 18:31:43 34° S visible
22 Jan 2.5 18:28:43 10° W 18:30:46 22° SSW 18:31:26 20° S visible
23 Jan 3.4 18:28:17 10° WSW 18:29:45 14° SSW 18:31:10 10° S visible
